Regional Weather Roundup
Issued by NWS

Home | Current Version | Previous Version | Text Only | Print | Product List | Glossary Off
Versions: 1 2 3 4 5 6 7 8 9 10 11 12 13 14 15 16 17 18 19 20 21 22 23 24 25 26 27 28 29 30 31 32 33 34 35 36 37 38 39 40 41 42 43 44 45 46 47 48 49 50

000
ASUS43 KMPX 172210
RWRMN
WEATHER ROUNDUP FOR MINNESOTA
NATIONAL WEATHER SERVICE TWIN CITIES/CHANHASSEN MN
400 PM CST SUN DEC 17 2017


NOTE: "FAIR" INDICATES FEW OR NO CLOUDS BELOW 12,000 FEET WITH NO
SIGNIFICANT WEATHER AND/OR OBSTRUCTIONS TO VISIBILITY. N/A MEANS
CURRENT SKY AND/OR WEATHER CONDITIONS ARE NOT AVAILABLE.

MNZ060>063-068>070-172300-
   Twin Cities Metro

CITY           SKY/WX    TMP DP  RH WIND       PRES   REMARKS
TWIN CITIES    CLOUDY    28  24  85 CALM      29.98F FOG
ST PAUL        CLOUDY    28  24  85 CALM      29.99F FOG
CRYSTAL        CLOUDY    27  20  75 N3        29.97F HAZE
BLAINE         CLOUDY    28  27  93 CALM      29.97F FOG
LAKEVILLE      CLOUDY    25  25 100 CALM      29.96F FOG
EDEN PRAIRIE   CLOUDY    28  23  81 CALM      29.96F HAZE
SOUTH ST PAUL  CLOUDY    28  25  87 CALM      29.97F FOG
LAKE ELMO      CLOUDY    28  27  93 CALM      29.98F
$$
MNZ001>005-007-008-013>017-022>024-027-028-172300-
   Northwest Minnesota

CITY           SKY/WX    TMP DP  RH WIND       PRES   REMARKS
BEMIDJI        CLOUDY    30  26  85 S7        29.89S WCI  23
HALLOCK        CLEAR     19  16  86 S10       29.84F WCI   8
ROSEAU         CLEAR     21  18  86 SW3       29.84F
WARROAD        CLEAR     27  21  80 SW5       29.84F WCI  21
THIEF RVR FALL CLEAR     22  20  92 S9        29.88F WCI  12
CROOKSTON      FOG       23  23 100 S15       29.90S VSB 1/4 WCI  10
FOSSTON        CLOUDY    25  25 100 S12       29.90S FOG     WCI  14
DETROIT LAKES  CLOUDY    28  28 100 SW6       29.91F FOG     WCI  22
MOORHEAD       CLEAR     28  27  93 CALM      29.92F
PARK RAPIDS    CLEAR     28  24  85 CALM      29.90F
MAHNOMEN       CLOUDY    28  27  94 S9        29.90S WCI  20
$$
MNZ006-009>011-018-025>026-172300-
   North Central Minnesota

CITY           SKY/WX    TMP DP  RH WIND       PRES   REMARKS
BAUDETTE       CLEAR     27  21  78 SW7       29.83F WCI  19
FLAG ISLAND    CLEAR     16  12  86 S5        29.82F WCI   9
INTL FALLS     CLEAR     29  21  72 SW7       29.86S WCI  22
WASKISH        CLEAR     28  25  86 SW5       29.88S WCI  23
BIG FORK       CLOUDY    28  27  93 S7        29.90S WCI  21
LONGVILLE      CLOUDY    28  27  93 SW3       29.91F FOG
GRAND RAPIDS   CLOUDY    26  24  92 S5        29.94S WCI  20
CRANE LAKE     CLOUDY    27  23  86 S5        29.91F WCI  21
ORR            CLOUDY    27  21  80 S7        29.88S WCI  19
COOK           CLOUDY    25  23  93 SW7       29.91S WCI  17
WALKER         CLOUDY    28  26  89 SW7       29.91S WCI  21
$$
MNZ012-019>021-037-172300-
   Northeast Minnesota

CITY           SKY/WX    TMP DP  RH WIND       PRES   REMARKS
DULUTH         CLOUDY    24  21  88 SW6       29.93F WCI  17
ELY            CLOUDY    23  21  93 SW6       29.90F WCI  16
HIBBING        CLOUDY    23  22  96 S5        29.92F WCI  17
EVELETH        CLOUDY    22  20  89 SW6       29.93S FOG     WCI  15
DULUTH HARBOR  PTCLDY    27  21  80 SW5       29.99F WCI  21
TWO HARBORS    CLOUDY    28  23  80 SW5       29.93S WCI  23
SILVER BAY     CLOUDY    27  23  86 CALM      29.92F
GRAND MARAIS     N/A     30  25  81 W8        29.95F WCI  22
G MARAIS ARPRT CLOUDY    21  19  93 SW6       29.89S FOG     WCI  14
$$
MNZ029>031-032-039>041-046>048-054>057-064-172300-
   West Central Minnesota

CITY           SKY/WX    TMP DP  RH WIND       PRES   REMARKS
FERGUS FALLS   CLOUDY    28  28 100 S6        29.95F FOG     WCI  22
WHEATON        CLOUDY    34  30  86 SE6       29.95S FOG     WCI  29
MORRIS         CLOUDY    30  28  93 SE7       29.93F FOG     WCI  23
ALEXANDRIA     CLOUDY    28  27  96 S6        29.93F FOG     WCI  22
ELBOW LAKE     CLOUDY    30  30  98 S8        29.93F FOG     WCI  23
WADENA         CLOUDY    28  27  93 S6          N/A  FOG     WCI  22
GLENWOOD       PTCLDY    28  27  93 CALM      29.94F FOG
APPLETON       CLOUDY    32  27  80 CALM      29.95S
BENSON         CLOUDY    30  27  86 CALM      29.96F
ORTONVILLE     CLEAR     30  28  93 SE3       29.93S
MADISON        PTCLDY    36  28  75 SE6       29.94S
WILLMAR        FAIR      28  27  93 SE3       29.96F FOG
$$
MNZ033>034-036-042>043-049>051-058-059-172300-
   Central Minnesota

CITY           SKY/WX    TMP DP  RH WIND       PRES   REMARKS
ST CLOUD       CLOUDY    25  20  81 SE5       29.96F WCI  19
SAUK CENTRE    CLOUDY    27  25  91 CALM      29.95S
PAYNESVILLE    CLOUDY    28  25  88 CALM      29.95F
AITKIN         CLOUDY    25  21  86 S3        29.93F
PINE RIVER     CLOUDY    27  23  86 S6        29.96F FOG     WCI  20
BRAINERD       CLOUDY    27  22  81 S6        29.94F WCI  20
STAPLES        CLOUDY    27  25  93 S5        29.93F FOG     WCI  21
LONG PRAIRIE   CLOUDY    27  25  93 CALM      29.94F FOG
LITTLE FALLS   CLOUDY    27  19  74 CALM      29.95F
LITCHFIELD     CLOUDY    28  23  80 CALM      29.96F
BUFFALO        CLOUDY    27  21  79 CALM      29.97F
MAPLE LAKE     MOCLDY    28  23  81 CALM      29.97F
HUTCHINSON     CLOUDY    29  23  77 CALM      29.97F
$$
MNZ037-044-045-052-053-172300-
   East Central Minnesota

CITY           SKY/WX    TMP DP  RH WIND       PRES   REMARKS
PRINCETON      PTCLDY    28  21  74 CALM      29.97F
MORA           CLOUDY    27  21  80 CALM      29.98F
CAMBRIDGE      CLOUDY    27  19  74 CALM      29.98S
RUSH CITY      CLOUDY    25  22  86 CALM      29.98F
MOOSE LAKE     CLOUDY    27  19  74 CALM      29.95F
HINCKLEY       FAIR      27  23  86 S3        29.97F
CLOQUET        CLOUDY    25  19  80 CALM      29.94F
MCGREGOR       CLOUDY    27  23  86 S3        29.95S
$$
MNZ071>073-080-081-089-090-097-098-172300-
   Southwest Minnesota

CITY           SKY/WX    TMP DP  RH WIND       PRES   REMARKS
MONTEVIDEO     PTCLDY    30  27  86 CALM      29.95F
GRANITE FALLS  CLOUDY    32  26  79 CALM      29.97F HAZE
CANBY          CLOUDY    36  29  78 E7        29.94S
MARSHALL       CLOUDY    33  27  78 CALM      29.95F
REDWOOD FALLS  CLOUDY    30  24  78 E3        29.96F HAZE
OLIVIA         CLOUDY    30  25  80 CALM      29.95F
PIPESTONE      CLOUDY    36  28  75 NW3       29.92S
WINDOM           N/A     32  18  55 CALM      29.94S
WORTHINGTON    CLEAR     34  28  79 CALM      29.94F
JACKSON        CLEAR     32  23  69 CALM      29.94S
SLAYTON        MOCLDY    33  28  82 CALM      29.94S
$$
MNZ065>067-074>077-082>085-091>093-172300-
   South Central Minnesota

CITY           SKY/WX    TMP DP  RH WIND       PRES   REMARKS
MANKATO        CLOUDY    26  22  84 E5        29.97F FOG     WCI  20
NEW ULM        MOCLDY    30  21  69 CALM      29.96S
ST JAMES       CLEAR     30  23  74 CALM      29.97S
FAIRMONT       CLOUDY    31  24  75 NE3       29.96S
GLENCOE        MOCLDY    28  24  84 CALM      29.96F
FARIBAULT      CLOUDY    27  25  93 CALM      29.96F FOG
OWATONNA       CLOUDY    27  27 100 CALM      29.95S FOG
WASECA         CLOUDY    28  27  93 CALM      29.97S FOG
ALBERT LEA     CLOUDY    28  27  93 CALM      29.96R FOG
$$
MNZ078>079-086>088-094>096-172300-
   Southeast Minnesota

CITY           SKY/WX    TMP DP  RH WIND       PRES   REMARKS
ROCHESTER      CLOUDY    29  27  92 CALM      29.95S FOG
RED WING       CLOUDY    28  25  86 CALM      29.98F FOG
STANTON        CLOUDY    28  26  91 CALM      29.95F FOG
DODGE CENTER   CLOUDY    27  27 100 CALM      29.95S FOG
WINONA         CLOUDY    32  28  86 NW3       29.99S
AUSTIN         CLOUDY    28  27  93 CALM      29.95S FOG
PRESTON        CLOUDY    28  27  96 CALM      29.95F FOG
$$
ABBREVIATIONS USED IN REMARKS
   TC - TEMPERATURES IN CELSIUS
  WCI - WIND CHILL INDEX
   HX - HEAT INDEX
  VSB - VISIBILITY
$$



USA.gov is the U.S. government's official web portal to all federal, state and local government web resources and services.